Погода в Претории

ЮАР     25°44′23″S   28°13′13″E
темп.,
°C
ветер,
м/с
пор.,
м/с
влажн.,
%
обл.,
%
осадки,
мм/ч
давл.,
гПа
погр.,
м
17 августа, ср
ср1723:00+14зюз243321 0.0 1021117
02:00+12юз113684 0.0 101910
05:00+11сз114155 0.0 101910
08:00+13с11385 0.0 1019116
11:00+19сз362335 0.0 1017725
14:00+23зсз561620 0.0 10131328
17:00+23зсз47153 0.0 10121674
20:00+19зсз11200 0.0 101416
18 августа, чт
чт1823:00+17сз11230 0.0 101411
02:00+16ссв11250 0.0 101311
05:00+14св11270 0.0 101211
08:00+16ссв11245 0.0 101448
11:00+22сз613165 0.0 10121168
14:00+26сз815105 0.0 10082511
17:00+25зсз61484 0.0 10072461
20:00+20з41112100 0.0 1009577
19 августа, пт
пт1923:00+17юз51115100 0.0 1011575
02:00+14ююз51024100 0.0 1011565
05:00+12ююз51035100 0.0 1013508
08:00+12юз483571 0.0 1015748
11:00+13юз792899 0.0 10181874
14:00+16юз710195 0.0 10152184
17:00+16ююз710205 0.0 10161814
20:00+14ююз492624 0.0 10191204
20 августа, сб
сб2023:00+12юз37355 0.0 10201014
02:00+11ююз493843 0.0 1020724
05:00+10ююз511386 0.0 1021676
08:00+11юз410345 0.0 1022655
11:00+16юз610161 0.0 10211095
14:00+19юз61080 0.0 10181568
17:00+18ююз68120 0.0 10191679
20:00+15ю35170 0.0 1023845
21 августа, вс
вс2123:00+13ю36220 0.0 1024547
02:00+12ююв38260 0.0 1025400
05:00+10ююв36290 0.0 1025246
08:00+11вюв34280 0.0 1027274
11:00+16ссв33190 0.0 10261095
14:00+19с34130 0.0 10231530
17:00+20сз24130 0.0 10221709
20:00+16зюз25170 0.0 1024181